This is the latest recevied weather packets stored in our database for station/object KC0AFB. If no packets are shown the sender has not sent any weather packets the latest 10 day(s).
| Time | Temp. | Humidity | Pressure | Rain* | Wind** | Luminosity | Snow |
|---|---|---|---|---|---|---|---|
| 1777408699 | 8.33° C | 43% | 1018.3 hPa | 0 mm | - | 196 W/m² | - |
| 1777408394 | 9.44° C | 41% | 1018.1 hPa | 0 mm | - | 223 W/m² | - |
| 1777408089 | 9.44° C | 41% | 1018.2 hPa | 0 mm | - | 720 W/m² | - |
| 1777407785 | 8.33° C | 44% | 1018.3 hPa | 0 mm | - | 692 W/m² | - |
| 1777407481 | 7.78° C | 43% | 1018.6 hPa | 0 mm | - | 186 W/m² | - |
| 1777407176 | 9.44° C | 43% | 1018.6 hPa | 0 mm | - | 186 W/m² | - |
| 1777406871 | 9.44° C | 43% | 1018.2 hPa | 0 mm | - | 496 W/m² | - |
| 1777406566 | 8.33° C | 44% | 1018.5 hPa | 0 mm | - | 282 W/m² | - |
| 1777406262 | 8.33° C | 45% | 1018.5 hPa | 0 mm | - | 411 W/m² | - |
| 1777405961 | 8.33° C | 44% | 1018.3 hPa | 0 mm | - | 214 W/m² | - |
| 1777405658 | 8.89° C | 44% | 1018.5 hPa | 0 mm | - | 224 W/m² | - |
| 1777405355 | 8.89° C | 46% | 1018.2 hPa | 0 mm | - | 704 W/m² | - |
| 1777405051 | 8.33° C | 48% | 1018.2 hPa | 0 mm | - | 705 W/m² | - |
| 1777404745 | 8.33° C | 44% | 1018.3 hPa | 0 mm | - | 213 W/m² | - |
| 1777404441 | 8.89° C | 44% | 1018.6 hPa | 0 mm | - | 670 W/m² | - |
| 1777404137 | 8.33° C | 47% | 1018.6 hPa | 0 mm | - | 309 W/m² | - |
| 1777403834 | 8.33° C | 47% | 1018.7 hPa | 0 mm | - | 585 W/m² | - |
| 1777403529 | 8.33° C | 45% | 1018.3 hPa | 0 mm | - | 424 W/m² | - |
| 1777403229 | 8.33° C | 47% | 1018.6 hPa | 0 mm | - | 321 W/m² | - |
| 1777402924 | 7.78° C | 47% | 1018.5 hPa | 0 mm | - | 305 W/m² | - |
| 1777402620 | 7.78° C | 45% | 1018.3 hPa | 0 mm | - | 217 W/m² | - |
| 1777402318 | 8.33° C | 46% | 1018.3 hPa | 0 mm | - | 251 W/m² | - |
| 1777402017 | 7.78° C | 47% | 1018.5 hPa | 0 mm | - | 892 W/m² | - |
| 1777401716 | 7.78° C | 47% | 1018.8 hPa | 0 mm | - | 264 W/m² | - |
| 1777401413 | 8.33° C | 48% | 1018.7 hPa | 0 mm | - | 325 W/m² | - |
* Rain latest hour (hover to see other rain measurements)
** Current wind speed in m/s (hover to see current wind gust speed)